Weather History for KITR - March, 2014

Change the Weather History Date:

Tuesday, March 4, 2014

  Actual Average Record
Temperature  
Mean Temperature 45 °F 36 °F  
Max Temperature 64 °F 50 °F 83 °F (1921)
Min Temperature 26 °F 22 °F -21 °F (1960)
Degree Days  
Heating Degree Days 20    
Moisture  
Dew Point 25 °F    
Average Humidity 55    
Maximum Humidity 82    
Minimum Humidity 16    
Precipitation  
Precipitation 0.00 in 0.03 in 1.16 in (1981)
Month to date precipitation T 0.08  
Year to date precipitation 0.70 0.88  
Sea Level Pressure  
Sea Level Pressure 29.87 in    
Wind  
Wind Speed 10 mph (NW)    
Max Wind Speed 20 mph    
Max Gust Speed -    
Visibility 10 miles    
Events      
T = Trace of Precipitation, MM = Missing Value Source: NWS Daily Summary

Daily Weather History Graph

Daily Weather History Graph

Search for Another Location

Airport or City:

Trip Planner

Search our weather history database for the weather conditions in past years. The results will help you decide how hot, cold, wet, or windy it might be!

Date:

Astronomy

Mar. 04, 2014 Rise Set
Actual Time 6:17 AM MST 5:44 PM MST
Civil Twilight 5:50 AM MST 6:11 PM MST
Nautical Twilight 5:19 AM MST 6:42 PM MST
Astronomical Twilight 4:48 AM MST 7:13 PM MST
Moon 8:06 AM MST (3/4) 9:52 PM MST (3/4)
Length of Visible Light 12h 21m
Length of Day
11h 27m
Waxing Crescent, 15% of the Moon is Illuminated
Mar 4
Waxing Crescent
Mar 8
First Quarter
Mar 16
Full
Mar 23
Last Quarter
Mar 30
New

Hourly Weather History & Observations

Time (MST) Temp. Windchill Dew Point Humidity Pressure Visibility Wind Dir Wind Speed Gust Speed Precip Events Conditions
12:53 AM 32.0 °F 23.6 °F 26.1 °F 79% 29.94 in 10.0 mi WSW 10.4 mph - N/A   Clear
1:53 AM 30.0 °F 21.1 °F 25.0 °F 82% 29.92 in 10.0 mi West 10.4 mph - N/A   Clear
2:53 AM 28.0 °F 19.3 °F 21.9 °F 78% 29.90 in 10.0 mi WSW 9.2 mph - N/A   Clear
3:53 AM 30.9 °F 22.2 °F 23.0 °F 72% 29.89 in 10.0 mi WSW 10.4 mph - N/A   Clear
4:53 AM 27.0 °F 18.0 °F 21.0 °F 78% 29.91 in 10.0 mi WSW 9.2 mph - N/A   Clear
5:53 AM 28.0 °F 18.6 °F 21.9 °F 78% 29.94 in 10.0 mi WSW 10.4 mph - N/A   Clear
6:53 AM 32.0 °F 23.6 °F 25.0 °F 75% 29.94 in 10.0 mi WSW 10.4 mph - N/A   Clear
7:53 AM 39.0 °F 34.0 °F 28.9 °F 67% 29.92 in 10.0 mi WSW 6.9 mph - N/A   Clear
8:53 AM 48.0 °F - 28.9 °F 48% 29.89 in 10.0 mi WSW 8.1 mph - N/A   Clear
9:53 AM 51.1 °F - 30.9 °F 46% 29.88 in 10.0 mi West 5.8 mph - N/A   Clear
10:53 AM 55.0 °F - 28.9 °F 37% 29.85 in 10.0 mi WNW 4.6 mph - N/A   Clear
11:53 AM 60.1 °F - 26.1 °F 27% 29.81 in 10.0 mi North 5.8 mph - N/A   Clear
12:53 PM 64.0 °F - 21.0 °F 19% 29.76 in 10.0 mi North 4.6 mph - N/A   Clear
1:53 PM 63.0 °F - 15.1 °F 16% 29.76 in 10.0 mi Calm Calm - N/A   Clear
2:53 PM 63.0 °F - 16.0 °F 16% 29.75 in 10.0 mi West 3.5 mph - N/A   Clear
3:53 PM 62.1 °F - 17.1 °F 18% 29.74 in 10.0 mi NE 5.8 mph - N/A   Clear
4:53 PM 57.9 °F - 19.9 °F 23% 29.78 in 10.0 mi NNE 10.4 mph - N/A   Clear
5:53 PM 48.9 °F - 30.0 °F 48% 29.84 in 10.0 mi NNE 16.1 mph - N/A   Clear
6:53 PM 45.0 °F 39.3 °F 30.9 °F 58% 29.86 in 10.0 mi NE 11.5 mph - N/A   Clear
7:53 PM 42.1 °F 36.1 °F 32.0 °F 67% 29.88 in 10.0 mi NNE 10.4 mph - N/A   Clear
8:53 PM 41.0 °F 33.5 °F 30.9 °F 67% 29.88 in 10.0 mi North 13.8 mph - N/A   Clear
9:53 PM 39.0 °F 29.6 °F 30.9 °F 73% 29.93 in 10.0 mi North 18.4 mph - N/A   Clear
10:53 PM 36.0 °F 25.3 °F 30.0 °F 79% 29.95 in 10.0 mi North 19.6 mph - N/A   Mostly Cloudy
11:53 PM 35.1 °F 24.5 °F 28.9 °F 78% 29.95 in 10.0 mi North 18.4 mph - N/A   Mostly Cloudy